{"data":{"norad_id":7530,"intl_designator":"1974-089B","name":"OSCAR 7 (AO-7)","alt_names":[],"object_type":"PAYLOAD","status":"ACTIVE","operator":null,"country":"US","launch_date":"1974-11-15","launch_site_code":"AFWTR","launch_vehicle":null,"mission":null,"orbit_class":"UNKNOWN","rcs_meters":0.7542,"size_class":null,"mass_kg":null,"dimensions":null,"purposes":["comms"],"wikipedia_slug":null,"has_3d_model":false,"image_url":null,"decayed_at":null,"tle_current":{"epoch":"2026-09-20T00:21:15.956928Z","epoch_age_seconds":54017,"freshness":"FRESH","line1":"1 07530U 74089B   26263.01476802 -.00000045  00000+0  98815-5 0  9995","line2":"2 07530 101.9920 277.2524 0011997 311.4967  75.2520 12.53699604372408","mean_motion":12.53699604,"eccentricity":0.0011997,"inclination_deg":101.992,"raan_deg":277.2524,"arg_perigee_deg":311.4967,"mean_anomaly_deg":75.252,"bstar":9.8815e-6,"rev_number":37240,"period_min":114.86005063778,"perigee_km":1439.6682291014,"apogee_km":1458.4488020214,"semimajor_km":7827.1955155614,"source":"CELESTRAK","updated_at":"2026-09-20T09:00:45.225920Z"}}}